Regional Weather Roundup
Issued by NWS

Home | Current Version | Previous Version | Graphics & Text | Print | Product List | Glossary On
Versions: 1 2 3 4 5 6 7 8 9 10 11 12 13 14 15 16 17 18 19 20 21 22 23 24 25 26 27 28 29 30 31 32 33 34 35 36 37 38 39 40 41 42 43 44 45 46 47 48 49 50
000
ASUS43 KFSD 260410
RWRSD

WEATHER ROUNDUP FOR SOUTH DAKOTA
NATIONAL WEATHER SERVICE SIOUX FALLS SD
1000 PM CST THU DEC 25 2014

NOTE: "FAIR" INDICATES FEW OR NO CLOUDS BELOW 12,000 FEET WITH NO
SIGNIFICANT WEATHER AND/OR OBSTRUCTIONS TO VISIBILITY.


SDZ001>005-009-010-012>017-260500-
NORTHWEST AND NORTH CENTRAL SOUTH DAKOTA

CITY           SKY/WX    TMP DP  RH WIND       PRES   REMARKS
BUFFALO          N/A     21  16  81 N12       29.91R WCI   9
FAITH            N/A     24  18  77 N15       29.96S WCI  11
MOBRIDGE       CLOUDY    28  22  78 N10       29.95R WCI  19
$$

SDZ012>016-024>037-041>051-057-063-072>074-260500-
SOUTHWEST AND SOUTH CENTRAL SOUTH DAKOTA

CITY           SKY/WX    TMP DP  RH WIND       PRES   REMARKS
RAPID CTY ARPT CLOUDY    21  18  88 N17       29.95S WCI   7
PIERRE         CLOUDY    26  22  84 N14       29.95S WCI  14
CUSTER         CLOUDY    16  10  77 N3        29.82R
ELLSWORTH AFB  CLOUDY    21  18  88 N16       29.96  WCI   7
PHILIP         CLOUDY    25  19  78 N13       29.98R WCI  14
PINE RIDGE     LGT SNOW  24  19  81 N14       29.92R WCI  12
SPEARFISH      CLOUDY    18  16  93 NW7       29.96S WCI   8
WINNER         LGT SNOW  26  23  88 N15       29.92R FOG     WCI  14
$$

SDZ004>011-016>023-039-040-260500-
NORTHEAST SOUTH DAKOTA

CITY           SKY/WX    TMP DP  RH WIND       PRES   REMARKS
ABERDEEN       CLOUDY    28  23  81 N9        29.96R WCI  19
WATERTOWN      LGT SNOW  26  24  92 N8        29.89R FOG     WCI  18
SISSETON         N/A     28  25  88 N14       29.93  WCI  17
$$

SDZ017-020-022-023-036>040-048>070-260500-
SOUTHEAST SOUTH DAKOTA

CITY           SKY/WX    TMP DP  RH WIND       PRES   REMARKS
SIOUX FALLS    CLOUDY    30  27  88 N16G25    29.82R WCI  19
HURON          LGT SNOW  26  24  92 N13       29.93S FOG     WCI  15
CHAMBERLAIN    LGT SNOW  25  23  91 N15G21    29.92R WCI  13
MITCHELL       MIX PCPN  27  25  92 N18       29.89S WCI  14
YANKTON        CLOUDY    34  28  80 N15       29.82R WCI  24
$$

ABBREVIATIONS USED IN REMARKS
   TC - TEMPERATURE IN CELSIUS
  WCI - WIND CHILL INDEX
   HX - HEAT INDEX
  VSB - VISIBILITY



USA.gov is the U.S. government's official web portal to all federal, state and local government web resources and services.